Weather History for Kristianstad, Sweden

Change the Weather History Date:

Tuesday, September 17, 2013

  Actual Average Record
Temperature  
Mean Temperature 49 °F -  
Max Temperature 59 °F - - ()
Min Temperature 39 °F - - ()
Degree Days  
Heating Degree Days 16    
Moisture  
Dew Point 45 °F    
Average Humidity 91    
Maximum Humidity 100    
Minimum Humidity 63    
Precipitation  
Precipitation 0.00 in - - ()
Sea Level Pressure  
Sea Level Pressure 29.47 in    
Wind  
Wind Speed 5 mph ()    
Max Wind Speed 10 mph    
Max Gust Speed -    
Visibility 5.3 miles    
Events      
T = Trace of Precipitation, MM = Missing Value Source: Averaged Metar Reports

Daily Weather History Graph

Daily Weather History Graph

Search for Another Location

Airport:

Trip Planner

Search our weather history database for the weather conditions in past years. The results will help you decide how hot, cold, wet, or windy it might be!

Date:

Astronomy

Sep. 17, 2013 Rise Set
Actual Time 6:39 AM CEST 7:15 PM CEST
Civil Twilight 6:01 AM CEST 7:53 PM CEST
Nautical Twilight 5:16 AM CEST 8:37 PM CEST
Astronomical Twilight 4:28 AM CEST 9:26 PM CEST
Moon 6:03 PM CEST (9/17) 3:55 AM CEST (9/17)
Length of Visible Light 13h 51m
Length of Day
12h 36m
Waxing Gibbous, 94% of the Moon is Illuminated
Sep 17
Waxing Gibbous
Sep 19
Full
Sep 27
Last Quarter
Oct 5
New
Oct 12
First Quarter

Hourly Weather History & Observations

Time (CEST) Temp. Windchill Dew Point Humidity Pressure Visibility Wind Dir Wind Speed Gust Speed Precip Events Conditions
12:20 AM 46.4 °F 43.5 °F 44.6 °F 93% 29.44 in 6.2 mi SSW 5.8 mph - N/A   Unknown
12:50 AM 46.4 °F 43.5 °F 44.6 °F 93% 29.44 in 6.2 mi SSW 5.8 mph - N/A   Unknown
1:20 AM 44.6 °F 41.4 °F 44.6 °F 100% 29.47 in 6.2 mi SSW 5.8 mph - N/A   Unknown
1:50 AM 44.6 °F 41.4 °F 44.6 °F 100% 29.44 in 6.2 mi SW 5.8 mph - N/A   Unknown
2:20 AM 42.8 °F 41.1 °F 42.8 °F 100% 29.44 in - SW 3.5 mph - N/A   Unknown
2:50 AM 41.0 °F 37.1 °F 41.0 °F 100% 29.47 in 6.2 mi SSW 5.8 mph - N/A   Unknown
3:20 AM 41.0 °F 38.0 °F 41.0 °F 100% 29.47 in 3.1 mi SSE 4.6 mph - N/A   Unknown
3:50 AM 41.0 °F 37.1 °F 41.0 °F 100% 29.47 in 6.2 mi South 5.8 mph - N/A   Unknown
4:20 AM 39.2 °F 34.2 °F 39.2 °F 100% 29.47 in 6.2 mi South 6.9 mph - N/A   Unknown
4:50 AM 39.2 °F 35.0 °F 39.2 °F 100% 29.47 in 6.2 mi South 5.8 mph - N/A   Unknown
5:20 AM 41.0 °F 37.1 °F 41.0 °F 100% 29.47 in 6.2 mi SSW 5.8 mph - N/A   Scattered Clouds
5:50 AM 41.0 °F - 41.0 °F 100% 29.47 in - Calm Calm - N/A   Clear
6:20 AM 41.0 °F - 41.0 °F 100% 29.47 in - SSW 2.3 mph - N/A   Clear
6:50 AM 41.0 °F - 41.0 °F 100% 29.47 in - Variable 2.3 mph - N/A   Clear
7:20 AM 41.0 °F - 41.0 °F 100% 29.47 in - Calm Calm - N/A   Clear
7:50 AM 42.8 °F - 42.8 °F 100% 29.47 in - Calm Calm - N/A   Clear
8:20 AM 42.8 °F - 42.8 °F 100% 29.47 in - Calm Calm - N/A   Clear
8:50 AM 44.6 °F - 44.6 °F 100% 29.47 in - East 1.2 mph - N/A   Clear
9:20 AM 46.4 °F - 46.4 °F 100% 29.47 in - SSE 2.3 mph - N/A   Clear
9:50 AM 48.2 °F - 48.2 °F 100% 29.50 in - Calm Calm - N/A   Clear
10:20 AM 51.8 °F - 50.0 °F 94% 29.50 in - SSE 4.6 mph - N/A   Clear
10:50 AM 51.8 °F - 46.4 °F 82% 29.50 in - SSE 3.5 mph - N/A   Clear
11:20 AM 53.6 °F - 48.2 °F 82% 29.50 in - SSE 3.5 mph - N/A   Clear
11:50 AM 53.6 °F - 48.2 °F 82% 29.50 in - ESE 3.5 mph - N/A   Clear
12:20 PM 55.4 °F - 48.2 °F 77% 29.47 in - SSE 4.6 mph - N/A   Clear
12:50 PM 55.4 °F - 46.4 °F 72% 29.47 in - South 5.8 mph - N/A   Clear
1:20 PM 57.2 °F - 46.4 °F 67% 29.47 in 6.2 mi South 6.9 mph - N/A   Mostly Cloudy
1:50 PM 57.2 °F - 46.4 °F 67% 29.47 in 6.2 mi South 8.1 mph - N/A   Partly Cloudy
2:20 PM 59.0 °F - 46.4 °F 63% 29.47 in 6.2 mi South 9.2 mph - N/A   Scattered Clouds
2:50 PM 57.2 °F - 48.2 °F 72% 29.47 in 6.2 mi South 9.2 mph - N/A   Scattered Clouds
3:20 PM 57.2 °F - 48.2 °F 72% 29.47 in 6.2 mi SSW 9.2 mph - N/A   Scattered Clouds
3:50 PM 57.2 °F - 48.2 °F 72% 29.47 in 6.2 mi SSW 10.4 mph - N/A   Scattered Clouds
4:20 PM 57.2 °F - 48.2 °F 72% 29.47 in - South 8.1 mph - N/A   Clear
4:50 PM 57.2 °F - 48.2 °F 72% 29.47 in 6.2 mi South 9.2 mph - N/A   Scattered Clouds
5:20 PM 57.2 °F - 50.0 °F 77% 29.47 in 6.2 mi SSW 10.4 mph - N/A   Mostly Cloudy
5:50 PM 57.2 °F - 50.0 °F 77% 29.47 in - SSW 6.9 mph - N/A   Clear
6:20 PM 55.4 °F - 50.0 °F 82% 29.47 in - South 8.1 mph - N/A   Clear
6:50 PM 53.6 °F - 48.2 °F 82% 29.47 in 6.2 mi South 5.8 mph - N/A   Partly Cloudy
7:20 PM 50.0 °F - 48.2 °F 94% 29.47 in - South 4.6 mph - N/A   Clear
7:50 PM 48.2 °F - 48.2 °F 100% 29.47 in - South 4.6 mph - N/A   Clear
8:20 PM 46.4 °F 44.3 °F 46.4 °F 100% 29.47 in 6.2 mi South 4.6 mph - N/A   Unknown
8:50 PM 46.4 °F 43.5 °F 46.4 °F 100% 29.47 in 6.2 mi South 5.8 mph - N/A   Partly Cloudy
9:20 PM 46.4 °F 43.5 °F 46.4 °F 100% 29.47 in 6.2 mi South 5.8 mph - N/A   Scattered Clouds
9:50 PM 48.2 °F - 48.2 °F 100% 29.47 in 6.2 mi SW 4.6 mph - N/A   Partly Cloudy
10:20 PM 44.6 °F 43.1 °F 44.6 °F 100% 29.47 in 0.3 mi SSW 3.5 mph - N/A   Partly Cloudy
10:50 PM 42.8 °F 39.3 °F 42.8 °F 100% 29.47 in 0.5 mi South 5.8 mph - N/A   Unknown
11:20 PM 44.6 °F 41.4 °F 44.6 °F 100% 29.47 in 2.5 mi SSW 5.8 mph - N/A   Unknown
11:50 PM 41.0 °F 39.0 °F 41.0 °F 100% 29.47 in 0.8 mi South 3.5 mph - N/A   Mist